DW8851 Weather Reports


Display with metric or nautical units.
time (UTC)temp
F
wind
direction
speed
MPH
gust
MPH
rain 1hr
in
rain 24hr
in
rain mn
in
humidity
%
barometer
mb
20210622071507 72 138 0.0 0.0 0.00 0.03 0.02 92 1002.3
20210622071008 72 138 0.0 2.0 0.00 0.03 0.02 92 1002.4
20210622070507 72 138 0.0 2.0 0.00 0.03 0.02 92 1002.3
20210622070007 72 138 0.0 0.0 0.00 0.03 0.02 92 1002.3
20210622065507 72 136 0.0 0.0 0.00 0.03 0.02 91 1002.2
20210622065011 72 136 0.0 0.0 0.00 0.03 0.02 92 1002.3
20210622064507 72 136 0.0 0.0 0.00 0.03 0.02 92 1002.2
20210622064010 72 136 0.0 0.0 0.00 0.03 0.02 91 1002.1
20210622063505 72 136 0.0 2.0 0.00 0.03 0.02 91 1002.2
20210622063007 72 136 0.0 3.0 0.00 0.03 0.02 91 1002.2
20210622062505 72 162 0.0 3.0 0.00 0.03 0.02 91 1002.1
20210622062004 72 210 0.0 4.0 0.00 0.03 0.02 91 1002.0
20210622061504 73 169 1.0 4.0 0.00 0.03 0.02 91 1002.1
20210622061010 73 203 2.0 5.0 0.00 0.03 0.02 91 1002.2
20210622060502 73 109 2.0 5.0 0.01 0.03 0.02 91 1001.9
20210622060006 73 209 2.0 5.0 0.01 0.03 0.02 91 1002.0
20210622055503 73 211 0.0 4.0 0.01 0.03 0.02 91 1002.0
20210622055104 73 166 0.0 3.0 0.01 0.03 0.02 91 1002.2
20210622054737 73 180 0.0 3.0 0.02 0.03 0.02 91 1002.2
20210622054611 73 180 0.0 3.0 0.02 0.03 0.02 91 1002.2
20210622054058 73 194 0.0 3.0 0.02 0.03 0.02 90 1002.4
20210622053605 74 157 2.0 3.0 0.02 0.03 0.02 90 1002.5
20210622053310 74 172 0.0 3.0 0.02 0.03 0.02 91 1002.3
20210622052557 74 177 1.0 3.0 0.02 0.03 0.02 91 1002.3
20210622052104 74 126 0.0 3.0 0.02 0.03 0.02 91 1002.3
20210622051640 74 146 1.0 3.0 0.02 0.03 0.02 90 1002.3
20210622051116 74 169 1.0 2.0 0.02 0.03 0.02 90 1002.5
20210622050553 74 177 0.0 1.0 0.01 0.02 0.01 90 1002.7
20210622050211 74 179 0.0 2.0 0.01 0.02 0.01 90 1002.7
20210622045554 74 179 0.0 2.0 0.01 0.02 0.01 90 1002.7
20210622045049 74 178 0.0 2.0 0.00 0.01 0.00 90 1002.6
20210622044631 74 178 0.0 2.0 0.00 0.01 0.00 90 1002.6
20210622044045 74 210 0.0 0.0 0.01 0.01 0.00 90 1002.4
20210622043551 74 210 0.0 3.0 0.01 0.01 0.00 90 1002.5
20210622043122 74 210 0.0 3.0 0.01 0.01 0.00 90 1002.5
20210622042548 74 182 0.0 0.0 0.01 0.01 0.00 90 1002.4
20210622042043 74 115 0.0 0.0 0.01 0.01 0.00 90 1002.6
20210622041615 74 115 0.0 2.0 0.01 0.01 0.00 89 1002.7
20210622041044 74 109 0.0 3.0 0.01 0.01 0.00 89 1002.8
20210622040540 74 154 0.0 1.0 0.01 0.01 0.00 88 1002.8
20210622040148 74 154 0.0 3.0 0.01 0.01 0.00 88 1003.2
20210622035544 74 152 0.0 5.0 0.01 0.01 0.01 88 1003.2
20210622035041 75 199 0.0 5.0 0.01 0.01 0.01 87 1003.6
20210622034717 75 36 1.0 6.0 0.01 0.01 0.01 87 1003.7
20210622034038 76 45 1.0 6.0 0.00 0.00 0.00 86 1004.0
20210622033555 76 286 0.0 6.0 0.00 0.00 0.00 86 1004.2
20210622033123 76 260 0.0 6.0 0.00 0.00 0.00 85 1003.9
20210622032553 76 204 1.0 6.0 0.00 0.00 0.00 85 1003.3
20210622032040 76 181 2.0 8.0 0.00 0.00 0.00 85 1003.3
20210622031603 76 186 2.0 8.0 0.00 0.00 0.00 85 1003.2
20210622030536 76 189 2.0 8.0 0.00 0.00 0.00 85 1003.2
20210622030035 76 202 2.0 8.0 0.00 0.00 0.00 85 1003.0
20210622025538 76 214 2.0 6.0 0.00 0.00 0.00 85 1003.0
20210622025042 76 179 2.0 8.0 0.00 0.00 0.00 85 1003.0
20210622024632 76 214 2.0 8.0 0.00 0.00 0.00 85 1002.9
20210622024036 76 163 3.0 11.0 0.00 0.00 0.00 84 1002.9
20210622023537 76 206 3.0 11.0 0.00 0.00 0.00 84 1002.9
20210622023145 76 225 2.0 9.0 0.00 0.00 0.00 84 1002.9
20210622022535 76 173 3.0 7.0 0.00 0.00 0.00 84 1002.9
20210622022036 76 186 1.0 8.0 0.00 0.00 0.00 84 1002.9
20210622021647 76 217 2.0 9.0 0.00 0.00 0.00 84 1002.9
20210622021048 76 173 3.0 9.0 0.00 0.00 0.00 84 1002.8
20210622020533 77 188 3.0 10.0 0.00 0.00 0.00 84 1002.8
20210622020117 77 204 3.0 10.0 0.00 0.00 0.00 83 1002.9
20210622015534 77 167 3.0 10.0 0.00 0.00 0.00 83 1002.9
20210622015034 77 233 3.0 10.0 0.00 0.00 0.00 83 1002.9
20210622014555 77 238 4.0 11.0 0.00 0.00 0.00 83 1002.9
20210622014040 77 152 4.0 10.0 0.00 0.00 0.00 83 1002.6
20210622013554 77 183 2.0 9.0 0.00 0.00 0.00 83 1002.4
20210622013110 77 119 3.0 8.0 0.00 0.00 0.00 83 1002.3
20210622012537 77 207 4.0 9.0 0.00 0.00 0.00 83 1002.1
20210622012034 77 157 3.0 6.0 0.00 0.00 0.00 82 1002.5
20210622011544 78 158 2.0 9.0 0.00 0.00 0.00 82 1002.4
20210622011041 78 93 4.0 9.0 0.00 0.00 0.00 82 1002.5
20210622010529 78 205 4.0 9.0 0.00 0.00 0.00 82 1002.3
20210622010054 78 125 3.0 11.0 0.00 0.00 0.00 82 1002.2
20210622005535 78 185 2.0 8.0 0.00 0.00 0.00 82 1002.2
20210622005046 78 241 2.0 7.0 0.00 0.00 0.00 82 1002.3
20210622004607 78 115 2.0 7.0 0.00 0.00 0.00 81 1002.4
20210622004028 78 187 3.0 7.0 0.00 0.00 0.00 81 1002.4
20210622003528 78 248 3.0 7.0 0.00 0.00 0.00 81 1002.4
20210622003103 78 131 2.0 6.0 0.00 0.00 0.00 81 1002.3
20210622002528 78 148 1.0 6.0 0.00 0.00 0.00 81 1002.3
20210622002037 78 172 2.0 10.0 0.00 0.00 0.00 81 1002.4
20210622001639 78 198 3.0 10.0 0.00 0.00 0.00 80 1002.4
20210622001028 78 167 1.0 6.0 0.00 0.00 0.00 80 1002.5
20210622000548 78 200 2.0 7.0 0.00 0.00 0.00 80 1002.5
20210622000055 79 169 2.0 6.0 0.00 0.00 0.00 80 1002.2
20210621235551 79 175 1.0 6.0 0.00 0.00 0.00 80 1002.2
20210621235028 79 157 2.0 7.0 0.00 0.00 0.00 80 1002.3
20210621234625 79 140 3.0 8.0 0.00 0.00 0.00 80 1002.2
20210621234028 79 162 2.0 8.0 0.00 0.00 0.00 79 1002.5
20210621233529 79 175 2.0 9.0 0.00 0.00 0.00 79 1002.6
20210621233035 79 178 3.0 9.0 0.00 0.00 0.00 79 1002.5
20210621232532 80 149 2.0 10.0 0.00 0.00 0.00 78 1002.2
20210621232025 80 203 3.0 9.0 0.00 0.00 0.00 78 1002.2
20210621231024 80 5 4.0 10.0 0.00 0.00 0.00 77 1001.6
20210621230524 80 141 2.0 10.0 0.00 0.00 0.00 77 1001.4
20210621230036 81 235 5.0 10.0 0.00 0.00 0.00 76 1001.2
20210621225539 81 200 3.0 11.0 0.00 0.00 0.00 76 1001.0
20210621224539 81 182 5.0 10.0 0.00 0.00 0.00 76 1000.9
20210621224033 81 149 2.0 10.0 0.00 0.00 0.00 76 1001.2
20210621223521 82 195 4.0 10.0 0.00 0.00 0.00 75 1001.3
20210621223057 82 189 3.0 9.0 0.00 0.00 0.00 76 1001.5
20210621222521 82 134 5.0 9.0 0.00 0.00 0.00 75 1001.7
20210621221524 81 196 4.0 12.0 0.00 0.00 0.00 76 1001.9
20210621221019 81 163 2.0 8.0 0.00 0.00 0.00 76 1001.8
20210621220530 81 146 2.0 10.0 0.00 0.00 0.00 77 1001.9
20210621220044 81 184 4.0 10.0 0.00 0.00 0.00 76 1002.1
20210621215517 81 88 3.0 8.0 0.00 0.00 0.00 77 1002.1
20210621215021 81 148 4.0 11.0 0.00 0.00 0.00 76 1002.1
20210621214517 81 180 3.0 11.0 0.00 0.00 0.00 75 1002.3
20210621214038 82 204 4.0 9.0 0.00 0.00 0.00 74 1002.3
20210621213518 82 178 3.0 12.0 0.00 0.00 0.00 75 1002.3
20210621213055 81 148 2.0 12.0 0.00 0.00 0.00 75 1002.3
20210621212519 81 205 3.0 10.0 0.00 0.00 0.00 75 1002.2
20210621212015 81 188 4.0 10.0 0.00 0.00 0.00 75 1002.2
20210621211517 81 201 5.0 10.0 0.00 0.00 0.00 74 1002.3
20210621211014 81 153 3.0 14.0 0.00 0.00 0.00 74 1002.5
20210621210537 81 170 3.0 14.0 0.00 0.00 0.00 75 1002.4
20210621210056 81 159 4.0 15.0 0.00 0.00 0.00 74 1002.4
20210621205514 81 129 5.0 14.0 0.00 0.00 0.00 73 1002.5
20210621205019 81 138 4.0 14.0 0.00 0.00 0.00 74 1002.5
20210621204557 81 182 4.0 14.0 0.00 0.00 0.00 73 1002.6
20210621204012 82 190 5.0 15.0 0.00 0.00 0.00 72 1002.6
20210621203533 82 200 5.0 12.0 0.00 0.00 0.00 71 1002.6
20210621203021 83 159 6.0 12.0 0.00 0.00 0.00 71 1002.6
20210621202511 83 171 3.0 11.0 0.00 0.00 0.00 72 1002.7
20210621202010 83 90 5.0 11.0 0.00 0.00 0.00 72 1002.7
20210621201536 83 138 4.0 14.0 0.00 0.00 0.00 72 1002.7
20210621201012 83 192 5.0 14.0 0.00 0.00 0.00 71 1002.6
20210621200512 82 202 4.0 12.0 0.00 0.00 0.00 73 1002.6
20210621200014 83 193 4.0 10.0 0.00 0.00 0.00 72 1002.7
20210621195513 83 111 4.0 11.0 0.00 0.00 0.00 71 1002.8
20210621195014 83 192 3.0 10.0 0.00 0.00 0.00 74 1002.8
20210621194514 83 128 4.0 12.0 0.00 0.00 0.00 72 1002.9
20210621194005 84 146 5.0 12.0 0.00 0.00 0.00 71 1003.0
20210621193508 83 135 4.0 10.0 0.00 0.00 0.00 73 1003.4
20210621193008 83 156 4.0 12.0 0.00 0.00 0.00 72 1003.6
20210621192506 83 123 3.0 10.0 0.00 0.00 0.00 73 1003.7
20210621192002 83 157 3.0 10.0 0.00 0.00 0.00 74 1003.9
20210621191509 82 204 3.0 11.0 0.00 0.00 0.00 75 1003.8
20210621191001 83 255 5.0 10.0 0.00 0.00 0.00 72 1004.0
20210621190501 82 5 4.0 10.0 0.00 0.00 0.00 75 1004.1
20210621190000 82 213 4.0 11.0 0.00 0.00 0.00 73 1004.2
20210621185503 82 200 4.0 10.0 0.00 0.00 0.00 73 1004.2
20210621185001 83 342 3.0 10.0 0.00 0.00 0.00 72 1004.2
20210621184100 83 193 2.0 10.0 0.00 0.00 0.00 71 1004.2
20210621183559 82 96 3.0 10.0 0.00 0.00 0.00 72 1004.2
20210621183312 83 144 2.0 9.0 0.00 0.00 0.00 72 1004.2
20210621182600 83 92 2.0 8.0 0.00 0.00 0.00 71 1004.1
20210621182059 84 156 2.0 10.0 0.00 0.00 0.00 72 1004.0
20210621181717 83 88 4.0 14.0 0.00 0.00 0.00 71 1004.2
20210621181123 84 157 5.0 14.0 0.00 0.00 0.00 71 1004.3
20210621180607 84 143 2.0 11.0 0.00 0.00 0.00 71 1004.3
20210621180200 84 153 3.0 10.0 0.00 0.00 0.00 71 1004.4
20210621175556 84 212 3.0 9.0 0.00 0.00 0.00 71 1004.6
20210621175104 84 283 2.0 10.0 0.00 0.00 0.00 72 1004.5
20210621174736 83 116 4.0 11.0 0.00 0.00 0.00 72 1004.7
20210621174054 82 168 4.0 15.0 0.00 0.00 0.00 72 1004.6
20210621173552 82 70 5.0 15.0 0.00 0.00 0.00 73 1004.4
20210621173231 82 126 5.0 12.0 0.00 0.00 0.00 73 1004.5
20210621172612 82 146 3.0 11.0 0.00 0.00 0.00 74 1004.6
20210621172049 82 190 3.0 11.0 0.00 0.00 0.00 74 1004.7
20210621171622 82 220 5.0 11.0 0.00 0.00 0.00 73 1004.8
20210621171049 82 166 3.0 10.0 0.00 0.00 0.00 75 1004.7
20210621170612 81 240 6.0 11.0 0.00 0.00 0.00 74 1004.8
20210621170124 82 194 4.0 16.0 0.00 0.00 0.00 73 1004.8
20210621165555 82 155 5.0 16.0 0.00 0.00 0.00 76 1005.0
20210621165048 81 220 4.0 14.0 0.00 0.00 0.00 76 1005.1
20210621164617 82 227 4.0 14.0 0.00 0.00 0.00 75 1005.1
20210621164045 82 223 4.0 9.0 0.00 0.00 0.00 75 1005.3
20210621163614 82 169 3.0 10.0 0.00 0.00 0.00 75 1005.4
20210621163113 82 180 3.0 11.0 0.00 0.00 0.00 75 1005.6
20210621162543 82 146 3.0 11.0 0.00 0.00 0.00 76 1005.6
20210621162043 81 188 2.0 8.0 0.00 0.00 0.00 78 1005.6
20210621161624 81 222 3.0 9.0 0.00 0.00 0.00 76 1005.6
20210621161047 82 214 3.0 10.0 0.00 0.00 0.00 77 1005.7
20210621160543 82 172 4.0 10.0 0.00 0.00 0.00 76 1005.6
20210621160144 82 158 3.0 14.0 0.00 0.00 0.00 78 1005.4
20210621155543 82 196 4.0 16.0 0.00 0.00 0.00 77 1005.5
20210621155042 82 197 6.0 16.0 0.00 0.00 0.00 76 1005.5
20210621154633 83 170 5.0 12.0 0.00 0.00 0.00 75 1005.4
20210621154041 83 121 4.0 12.0 0.00 0.00 0.00 75 1005.4
20210621153540 82 167 3.0 16.0 0.00 0.00 0.00 76 1005.5
20210621153119 83 207 4.0 13.0 0.00 0.00 0.00 76 1005.6
20210621152543 82 178 4.0 11.0 0.00 0.00 0.00 75 1005.7
20210621152046 83 109 3.0 10.0 0.00 0.00 0.00 76 1005.7
20210621151701 83 193 5.0 15.0 0.00 0.00 0.00 75 1005.7
20210621151038 83 92 5.0 15.0 0.00 0.00 0.00 75 1005.8
20210621150536 83 222 4.0 11.0 0.00 0.00 0.00 76 1005.9
20210621150134 83 250 3.0 10.0 0.00 0.00 0.00 76 1006.0
20210621145600 82 202 4.0 10.0 0.00 0.00 0.00 77 1005.9
20210621145033 82 147 5.0 9.0 0.00 0.00 0.00 77 1006.1
20210621144612 82 221 4.0 8.0 0.00 0.00 0.00 77 1006.1
20210621144030 81 154 3.0 8.0 0.00 0.00 0.00 79 1006.2
20210621143540 81 167 1.0 7.0 0.00 0.00 0.00 80 1006.3
20210621143044 81 193 2.0 7.0 0.00 0.00 0.00 79 1006.4
20210621142535 81 192 3.0 10.0 0.00 0.00 0.00 78 1006.4
20210621142037 80 196 3.0 10.0 0.00 0.00 0.00 79 1006.3
20210621141545 81 159 4.0 7.0 0.00 0.00 0.00 78 1006.4
20210621141024 80 180 2.0 7.0 0.00 0.00 0.00 79 1006.5
20210621140522 80 202 2.0 6.0 0.00 0.00 0.00 79 1006.6
20210621140022 80 173 2.0 4.0 0.00 0.00 0.00 80 1006.6
20210621135539 79 190 1.0 7.0 0.00 0.00 0.00 82 1006.6
20210621135019 79 138 2.0 7.0 0.00 0.00 0.00 81 1006.7
20210621134529 78 173 2.0 6.0 0.00 0.00 0.00 81 1006.8
20210621134016 78 146 3.0 6.0 0.00 0.00 0.00 82 1006.9
20210621133515 78 201 3.0 6.0 0.00 0.00 0.00 82 1007.0
20210621133022 78 173 1.0 6.0 0.00 0.00 0.00 82 1006.9
20210621132515 77 212 2.0 5.0 0.00 0.00 0.00 83 1006.9
20210621132016 77 129 2.0 5.0 0.00 0.00 0.00 83 1006.9
20210621131539 77 198 2.0 6.0 0.00 0.00 0.00 84 1006.9
20210621131011 77 202 1.0 5.0 0.00 0.00 0.00 84 1006.8
20210621130509 76 142 1.0 6.0 0.00 0.00 0.00 85 1006.8
20210621130030 76 157 2.0 7.0 0.00 0.00 0.00 85 1006.9
20210621125506 75 229 2.0 7.0 0.00 0.00 0.00 85 1006.9
20210621125005 75 163 3.0 6.0 0.00 0.00 0.00 85 1007.0
20210621124503 75 205 2.0 6.0 0.00 0.00 0.00 86 1007.0
20210621124003 75 186 1.0 5.0 0.00 0.00 0.00 86 1007.0
20210621123606 74 126 1.0 5.0 0.00 0.00 0.00 87 1007.1
20210621123119 74 94 2.0 7.0 0.00 0.00 0.00 86 1007.1
20210621122608 74 207 3.0 7.0 0.00 0.00 0.00 86 1007.2
20210621122056 74 201 2.0 6.0 0.00 0.00 0.00 86 1007.2
20210621121706 74 208 3.0 5.0 0.00 0.00 0.00 86 1007.2
20210621121109 74 175 2.0 6.0 0.00 0.00 0.00 86 1007.5
20210621120554 74 167 2.0 6.0 0.00 0.00 0.00 86 1007.6
20210621120205 73 192 3.0 5.0 0.00 0.00 0.00 87 1007.8
20210621115555 73 216 2.0 4.0 0.00 0.00 0.00 87 1007.8
20210621115055 73 180 1.0 4.0 0.00 0.00 0.00 87 1007.7
20210621114609 73 176 1.0 3.0 0.00 0.00 0.00 88 1007.6
20210621114122 73 180 1.0 4.0 0.00 0.00 0.00 88 1007.8
20210621113547 73 211 1.0 3.0 0.00 0.00 0.00 88 1007.8
20210621113135 73 184 0.0 3.0 0.00 0.00 0.00 88 1007.9
20210621112555 72 189 1.0 3.0 0.00 0.00 0.00 87 1007.9
20210621112106 73 180 0.0 2.0 0.00 0.00 0.00 88 1007.9
20210621111618 72 180 0.0 3.0 0.00 0.00 0.00 87 1007.8
20210621111046 72 136 1.0 5.0 0.00 0.00 0.00 88 1007.8
20210621110546 72 142 1.0 5.0 0.00 0.00 0.00 88 1007.9
20210621110057 72 175 1.0 7.0 0.00 0.00 0.00 88 1007.8
20210621105542 72 161 1.0 4.0 0.00 0.00 0.00 88 1007.7
20210621105041 71 153 0.0 6.0 0.00 0.00 0.00 88 1007.8
20210621104615 71 131 1.0 6.0 0.00 0.00 0.00 88 1007.8
20210621104048 71 144 2.0 6.0 0.00 0.00 0.00 88 1007.7
20210621103537 71 142 1.0 3.0 0.00 0.00 0.00 88 1007.8
20210621103111 71 215 0.0 4.0 0.00 0.00 0.00 88 1007.9
20210621102535 71 202 2.0 5.0 0.00 0.00 0.00 88 1007.7
20210621102115 71 165 1.0 5.0 0.00 0.00 0.00 89 1007.7
20210621101543 71 110 0.0 3.0 0.00 0.00 0.00 89 1007.8
20210621101033 71 196 0.0 3.0 0.00 0.00 0.00 89 1007.8
20210621100534 71 196 1.0 3.0 0.00 0.00 0.00 89 1007.7
20210621100044 71 188 0.0 3.0 0.00 0.00 0.00 89 1007.6
20210621095531 71 166 0.0 3.0 0.00 0.00 0.00 89 1007.6
20210621095030 71 194 1.0 3.0 0.00 0.00 0.00 89 1007.5
20210621094543 70 184 0.0 2.0 0.00 0.00 0.00 89 1007.4
20210621094029 70 174 0.0 0.0 0.00 0.00 0.00 89 1007.4
20210621093527 70 174 0.0 0.0 0.00 0.00 0.00 89 1007.6
20210621093032 70 174 0.0 0.0 0.00 0.00 0.00 89 1007.6
20210621092526 70 174 0.0 2.0 0.00 0.00 0.00 89 1007.6
20210621092047 70 174 0.0 2.0 0.00 0.00 0.00 88 1007.7
20210621091542 70 103 0.0 1.0 0.00 0.00 0.00 88 1007.7
20210621091025 70 103 0.0 2.0 0.00 0.00 0.00 88 1007.7
20210621090525 71 100 0.0 3.0 0.00 0.00 0.00 88 1007.7
20210621090048 71 115 0.0 3.0 0.00 0.00 0.00 88 1007.8
20210621085525 70 119 0.0 3.0 0.00 0.00 0.00 88 1007.6
20210621085027 70 164 0.0 2.0 0.00 0.00 0.00 88 1007.7
20210621084554 70 161 0.0 2.0 0.00 0.00 0.00 88 1007.9
20210621084039 71 161 0.0 2.0 0.00 0.00 0.00 88 1008.0
20210621083523 71 161 0.0 2.0 0.00 0.00 0.00 88 1007.9
20210621083047 71 161 0.0 2.0 0.00 0.00 0.00 88 1007.9
20210621082524 71 156 0.0 3.0 0.00 0.00 0.00 88 1008.0
20210621082023 71 229 0.0 3.0 0.00 0.00 0.00 88 1008.0
20210621081534 71 149 0.0 3.0 0.00 0.00 0.00 89 1007.9
20210621081023 71 174 0.0 3.0 0.00 0.00 0.00 89 1007.8
20210621080522 71 136 0.0 0.0 0.00 0.00 0.00 89 1007.8
20210621080041 71 136 0.0 0.0 0.00 0.00 0.00 88 1007.8
20210621075522 71 136 0.0 0.0 0.00 0.00 0.00 87 1007.7
20210621075022 71 136 0.0 0.0 0.00 0.00 0.00 87 1007.7
20210621074519 71 136 0.0 0.0 0.00 0.00 0.00 87 1007.7
20210621074018 71 136 0.0 0.0 0.00 0.00 0.00 86 1007.7
20210621073519 71 136 0.0 0.0 0.00 0.00 0.00 86 1007.4
20210621073024 71 136 0.0 0.0 0.00 0.00 0.00 86 1007.5
20210621072517 72 130 0.0 0.0 0.00 0.00 0.00 86 1007.2
20210621072023 72 130 0.0 0.0 0.00 0.00 0.00 86 1007.3